Wind_Speed
25 25 25 24 24 25 24 24 24 23 22 20 20 19 20 20 20 20 20 19 19 19 20 20 20 20 19 18 18 19 19 19 19 20 20 19 19 20 21 22 22 22 22 22
26 25 25 25 24 23 23 24 23 23 23 23 21 21 20 20 20 19 19 18 18 18 19 20 19 19 19 19 20 20 20 20 19 19 19 20 21 21 21 21 22 22 23 23
27 27 26 26 24 23 23 24 25 25 23 23 22 21 21 20 20 20 19 18 18 18 19 19 19 20 20 20 20 21 20 20 19 19 20 20 21 21 21 22 22 21 22 22
28 28 28 26 25 24 23 23 25 25 24 24 23 22 22 21 21 21 19 18 18 19 18 18 18 19 19 20 20 20 20 19 19 20 20 20 21 21 22 22 22 22 21 21
26 27 27 26 26 25 24 24 23 23 23 23 23 22 22 22 22 22 20 19 18 18 17 18 19 19 19 20 20 19 19 19 19 20 20 20 21 21 21 22 22 22 23 22
25 26 27 27 27 26 26 26 24 24 24 24 23 22 21 21 22 21 21 20 20 20 20 19 20 20 20 20 21 21 21 21 21 21 21 21 21 21 21 22 21 22 22 21
25 26 26 26 27 26 26 27 26 25 24 24 24 23 22 22 22 22 21 21 20 20 21 21 22 22 22 22 22 21 21 21 21 21 21 21 21 21 22 22 21 21 21 21
25 26 25 25 26 26 26 26 26 25 25 25 25 24 23 23 23 23 23 23 22 22 22 22 22 22 23 23 22 22 22 21 21 21 21 22 22 22 21 21 21 21 21 21
25 24 24 25 25 25 26 25 25 24 23 24 24 24 23 23 23 23 23 23 23 23 23 23 23 24 23 22 22 22 21 21 22 21 22 23 23 22 22 22 22 21 21 21
23 23 24 25 24 25 25 25 24 24 24 23 23 23 23 23 23 22 22 23 23 23 24 24 24 23 22 21 21 21 21 21 22 22 22 22 23 23 23 22 21 22 22 22
22 22 23 23 24 23 24 24 23 24 24 24 23 23 22 22 21 21 22 21 22 22 23 23 23 22 22 22 22 21 21 21 22 22 22 22 23 23 23 22 23 23 23 22
22 21 22 22 22 23 23 23 23 24 24 24 24 24 24 23 22 22 22 22 22 23 23 23 23 23 23 23 23 23 22 22 22 22 22 22 22 22 22 23 23 23 22 22
21 21 21 21 21 21 22 23 23 23 23 23 23 24 24 23 23 23 23 23 23 23 23 23 23 22 23 23 23 23 22 22 22 22 22 22 21 21 22 22 22 22 21 20
20 20 20 20 21 21 21 21 21 21 22 23 23 23 24 24 23 23 23 24 24 23 24 23 23 23 22 22 22 22 22 21 21 21 21 20 20 20 20 20 21 20 20 19
19 19 19 19 20 21 21 21 21 21 22 23 23 23 24 24 23 23 23 23 23 23 23 23 23 23 23 22 22 22 21 21 21 21 21 20 20 19 19 19 19 19 18 18
18 18 18 19 20 20 20 19 20 21 22 22 23 23 23 23 23 23 23 23 22 22 23 23 23 23 23 23 23 23 21 21 21 21 20 20 19 19 18 19 19 18 18 18
17 17 17 17 17 17 17 18 18 19 20 21 22 22 22 23 23 23 22 22 23 23 23 23 22 23 23 23 23 22 21 21 21 21 20 20 20 20 19 19 18 17 17 17
16 17 17 17 17 18 18 18 19 19 20 20 21 22 23 23 23 23 22 23 23 23 23 23 22 22 22 22 22 22 21 21 21 21 21 20 20 19 18 17 17 17 17 16
14 15 16 16 17 18 18 19 20 21 21 21 22 22 22 22 23 23 24 24 24 24 23 23 23 22 21 22 21 21 21 20 20 20 20 19 19 18 17 16 16 16 16 16
14 15 16 17 18 19 19 19 20 21 22 22 22 21 21 21 21 22 22 23 23 23 23 22 22 21 21 21 21 20 20 19 19 18 18 18 17 16 16 16 16 16 16 16
16 17 18 18 19 19 19 19 20 20 22 22 22 22 21 21 22 22 22 21 20 21 22 21 21 21 20 19 19 19 19 19 18 17 17 17 17 16 16 16 16 16 16 16
17 18 18 19 19 19 19 19 20 20 21 20 21 21 21 21 21 21 21 20 20 21 21 21 20 20 19 18 18 18 18 18 18 17 17 17 17 17 17 16 16 16 16 15
18 18 19 19 19 19 20 20 20 20 21 21 21 21 21 21 20 20 19 19 19 19 20 19 19 19 19 18 17 17 17 17 17 17 17 17 18 18 17 16 16 16 16 16
18 18 18 18 19 19 19 19 19 19 20 20 21 20 19 19 18 19 20 20 20 19 19 18 17 18 18 17 17 17 17 17 16 17 17 17 17 17 17 17 17 17 16 16
17 18 19 19 20 20 19 19 19 19 20 20 19 19 18 18 18 18 19 19 19 19 19 18 18 17 17 17 17 17 17 17 17 17 16 17 17 18 18 18 17 17 16 15
17 18 19 19 19 19 19 18 18 18 18 18 18 18 17 17 17 17 17 18 18 18 17 17 18 18 17 17 16 16 16 16 16 16 16 16 17 17 17 17 17 16 16 16
16 16 17 18 18 17 17 16 16 16 16 16 16 16 16 16 15 15 16 16 17 16 16 16 17 17 17 16 16 15 14 14 15 15 16 16 16 16 16 17 17 17 16 16
Wind_Direction
265 266 266 266 265 266 268 272 273 273 275 277 278 279 281 283 282 279 279 276 273 271 269 269 269 270 270 273 275 275 274 274 275 274 274 273 275 275 275 277 277 275 273 272
265 266 266 267 268 268 267 268 270 271 273 274 275 277 279 282 281 280 279 275 272 269 267 266 268 271 273 273 274 273 272 273 274 274 274 276 278 278 277 277 278 277 274 272
264 263 265 266 267 268 269 266 266 270 271 272 272 275 276 278 279 278 276 275 270 270 272 272 272 271 272 273 274 274 274 274 273 274 276 277 277 278 279 280 282 278 276 274
263 262 263 265 267 267 268 268 267 268 270 271 271 274 275 275 277 277 274 275 273 271 271 271 272 273 275 274 275 275 273 273 275 274 276 277 277 279 280 280 281 279 276 276
262 262 263 264 266 267 267 268 267 267 268 271 271 269 271 272 271 274 273 271 272 271 271 268 269 272 276 276 275 274 274 275 275 275 275 275 277 279 280 281 281 280 278 276
263 264 264 266 266 267 267 267 267 268 269 271 271 269 269 269 268 270 271 269 269 269 270 270 270 272 275 276 274 274 275 276 276 275 275 275 278 280 281 281 282 281 279 277
263 263 264 265 266 266 266 267 267 268 270 268 266 267 268 268 268 266 268 269 269 267 268 269 270 271 273 273 272 273 275 275 275 276 277 278 280 281 282 282 282 282 280 279
261 262 262 264 264 263 265 266 266 266 267 267 265 264 264 266 268 268 268 270 270 269 268 269 270 272 272 271 270 270 272 274 275 277 277 279 280 281 282 282 282 282 281 280
262 262 263 262 263 263 265 265 264 265 266 265 264 263 264 265 267 268 268 270 273 271 270 271 272 272 271 270 269 268 270 272 274 276 277 278 280 280 280 281 281 279 279 280
261 261 262 263 264 264 263 263 263 264 267 267 265 264 266 267 266 268 270 271 272 271 270 271 271 270 269 269 269 270 272 274 275 275 276 276 277 279 280 279 279 279 279 280
264 263 263 262 262 262 262 261 260 263 267 267 266 265 266 267 267 268 268 270 271 274 274 274 273 272 272 273 272 273 274 275 276 276 276 276 277 278 279 279 279 279 280 280
264 265 264 262 262 262 261 260 261 263 266 266 266 266 268 268 267 268 270 272 274 274 276 275 275 275 275 275 274 277 279 279 279 279 279 279 279 278 278 279 280 279 279 280
264 265 266 265 263 262 260 261 262 262 263 264 267 267 267 268 269 271 272 272 275 275 274 273 275 277 277 277 277 278 279 280 279 279 280 279 279 279 278 277 279 280 280 279
264 266 270 268 265 264 265 266 264 264 264 264 266 267 267 268 269 270 270 272 273 274 274 273 275 276 275 275 277 278 279 280 279 278 279 279 279 279 278 276 276 278 278 277
266 268 269 269 268 267 265 264 265 266 264 263 265 266 266 267 269 269 270 272 272 274 274 274 275 275 274 274 274 275 276 276 277 277 278 277 277 277 277 276 276 276 276 276
267 267 265 266 269 268 265 263 262 263 264 264 264 265 266 267 269 271 272 272 271 272 273 274 275 274 273 273 273 272 273 275 277 277 276 275 275 276 277 277 275 275 274 273
272 270 270 271 270 268 268 267 265 264 264 265 265 266 267 268 270 272 273 274 273 272 272 274 274 273 272 273 273 271 271 272 274 276 275 274 274 275 276 277 275 274 273 274
276 277 277 277 274 272 273 271 270 268 266 267 268 268 268 268 269 270 271 271 272 273 272 271 270 272 272 271 272 272 270 270 272 274 274 272 272 273 274 274 273 271 271 273
279 278 279 278 277 277 275 274 274 272 271 270 270 270 270 269 270 270 271 271 271 270 269 268 269 270 272 271 271 270 270 271 272 273 272 269 268 269 270 272 271 272 270 269
280 280 280 279 279 281 281 278 278 276 275 276 277 275 274 274 273 274 275 275 270 267 266 265 266 268 270 271 270 268 266 269 273 272 268 265 266 267 269 271 270 269 270 271
280 281 282 283 282 280 280 279 279 278 277 279 279 277 276 276 276 277 277 274 268 265 266 267 267 268 268 268 267 266 266 268 271 269 265 263 264 265 267 270 271 271 271 272
283 285 285 285 283 280 279 279 279 278 278 280 281 279 279 279 279 279 276 274 271 268 268 269 268 268 267 269 270 269 269 269 270 267 264 263 265 266 265 267 270 270 270 272
286 288 289 288 286 283 280 280 281 280 279 280 282 282 282 280 278 277 275 274 273 270 269 269 268 267 268 270 272 272 270 269 268 264 261 261 263 265 265 267 269 267 269 270
289 290 290 288 287 285 283 283 283 282 281 281 282 283 281 277 276 275 274 273 272 270 268 266 265 265 267 270 271 271 271 271 270 266 263 262 262 262 264 267 268 268 268 266
292 294 294 293 291 289 288 287 285 283 281 280 280 279 278 277 276 276 274 273 272 269 266 263 262 262 264 267 269 271 272 271 269 268 265 264 264 263 263 265 265 265 263 263
299 300 299 297 296 294 291 287 285 285 282 279 278 278 277 277 276 274 273 271 271 268 265 262 262 262 262 263 265 268 269 268 265 265 264 262 263 265 265 264 261 261 262 263
301 303 302 299 297 294 292 289 287 286 282 278 277 276 275 274 274 273 272 273 272 268 264 262 263 262 259 259 262 265 268 268 266 263 263 263 264 265 265 266 264 261 261 263
Height
5769 5770 5770 5771 5771 5771 5771 5771 5771 5772 5771 5772 5772 5772 5771 5770 5770 5769 5769 5768 5768 5768 5768 5768 5768 5769 5769 5768 5768 5768 5768 5768 5767 5767 5767 5767 5767 5766 5766 5765 5765 5764 5763 5762
5762 5763 5763 5763 5764 5765 5765 5765 5765 5766 5766 5767 5766 5766 5766 5765 5764 5764 5764 5763 5763 5762 5762 5762 5763 5763 5763 5763 5763 5762 5762 5762 5762 5762 5761 5761 5761 5760 5760 5759 5758 5757 5756 5755
5755 5756 5756 5757 5758 5759 5759 5759 5760 5760 5761 5761 5761 5761 5760 5760 5759 5759 5758 5758 5757 5757 5757 5757 5757 5757 5757 5757 5757 5757 5756 5756 5756 5756 5755 5755 5754 5754 5753 5752 5751 5750 5749 5748
5747 5749 5749 5753 5752 5753 5753 5753 5753 5754 5754 5755 5755 5755 5754 5754 5754 5753 5753 5752 5752 5752 5752 5752 5752 5752 5752 5751 5751 5751 5750 5750 5750 5749 5749 5748 5748 5747 5746 5745 5744 5743 5742 5742
5740 5741 5742 5745 5745 5746 5746 5747 5747 5747 5748 5748 5748 5749 5748 5748 5748 5747 5747 5747 5747 5747 5747 5747 5747 5746 5746 5746 5746 5745 5745 5744 5744 5743 5743 5742 5741 5741 5739 5738 5737 5736 5735 5734
5733 5733 5735 5738 5738 5739 5740 5740 5741 5741 5741 5742 5742 5742 5743 5742 5742 5742 5742 5742 5741 5741 5742 5741 5741 5741 5741 5740 5740 5740 5739 5739 5738 5737 5737 5736 5735 5734 5733 5732 5731 5729 5728 5727
5726 5726 5727 5730 5730 5732 5734 5734 5734 5733 5734 5735 5735 5736 5737 5736 5736 5736 5736 5736 5736 5736 5736 5735 5735 5735 5735 5734 5734 5734 5733 5732 5732 5731 5730 5730 5729 5728 5727 5725 5724 5723 5722 5721
5719 5720 5723 5723 5723 5724 5725 5725 5725 5726 5727 5727 5728 5728 5729 5729 5729 5729 5729 5730 5730 5730 5729 5729 5729 5728 5728 5728 5727 5727 5727 5726 5725 5725 5724 5723 5722 5721 5720 5719 5718 5717 5716 5714
5713 5715 5715 5715 5716 5716 5717 5718 5718 5719 5720 5720 5721 5722 5723 5723 5723 5723 5723 5723 5723 5723 5723 5722 5722 5722 5721 5721 5721 5720 5720 5719 5719 5718 5718 5717 5716 5715 5714 5713 5712 5711 5709 5708
5706 5707 5708 5708 5708 5709 5710 5711 5712 5712 5713 5714 5714 5715 5716 5716 5716 5717 5717 5717 5716 5716 5716 5716 5715 5714 5714 5714 5714 5713 5713 5713 5712 5711 5711 5710 5709 5708 5707 5706 5705 5704 5703 5702
5699 5700 5701 5701 5702 5702 5703 5704 5704 5705 5706 5707 5707 5708 5708 5709 5709 5710 5710 5709 5709 5709 5709 5709 5708 5707 5706 5706 5706 5706 5706 5705 5705 5704 5703 5703 5702 5701 5700 5699 5698 5697 5696 5695
5692 5693 5693 5694 5695 5695 5696 5696 5697 5698 5699 5699 5700 5700 5701 5701 5702 5702 5702 5702 5702 5702 5701 5701 5701 5700 5700 5699 5699 5699 5698 5698 5698 5697 5697 5696 5695 5694 5693 5692 5691 5690 5689 5688
5685 5685 5686 5686 5687 5688 5689 5689 5689 5690 5691 5692 5692 5693 5693 5694 5694 5695 5695 5695 5695 5694 5694 5694 5693 5693 5692 5692 5692 5692 5691 5691 5691 5690 5689 5689 5688 5687 5686 5685 5684 5683 5682 5681
5679 5679 5680 5680 5680 5681 5681 5681 5682 5683 5683 5684 5685 5685 5686 5686 5687 5687 5687 5687 5687 5687 5686 5686 5686 5686 5685 5685 5685 5684 5684 5684 5684 5683 5682 5681 5681 5680 5679 5678 5678 5677 5676 5675
5673 5673 5673 5674 5673 5674 5674 5674 5675 5676 5676 5677 5678 5678 5678 5679 5679 5679 5679 5679 5679 5679 5679 5679 5679 5678 5678 5677 5677 5677 5677 5677 5676 5676 5675 5675 5674 5673 5672 5672 5671 5671 5670 5669
5668 5668 5668 5668 5668 5667 5667 5668 5668 5669 5669 5670 5670 5671 5671 5671 5672 5672 5672 5671 5672 5672 5671 5671 5671 5670 5670 5670 5670 5669 5670 5669 5669 5668 5668 5668 5667 5667 5666 5665 5665 5664 5664 5663
5662 5663 5662 5662 5661 5661 5661 5662 5662 5662 5663 5663 5663 5663 5663 5664 5664 5664 5664 5664 5664 5664 5664 5663 5663 5662 5662 5662 5662 5662 5662 5662 5662 5661 5661 5661 5661 5660 5659 5659 5658 5658 5658 5657
5658 5657 5657 5657 5656 5656 5656 5656 5656 5655 5655 5655 5656 5656 5656 5656 5656 5656 5656 5656 5656 5655 5655 5655 5655 5655 5654 5654 5654 5654 5655 5655 5654 5654 5654 5654 5654 5653 5653 5653 5652 5652 5652 5651
5653 5653 5652 5651 5651 5650 5650 5650 5649 5649 5649 5648 5648 5648 5648 5648 5648 5647 5647 5647 5647 5647 5647 5647 5647 5647 5648 5647 5647 5647 5648 5648 5647 5647 5647 5647 5647 5647 5647 5647 5647 5647 5646 5646
5649 5648 5647 5647 5646 5645 5644 5644 5643 5643 5642 5641 5641 5641 5641 5640 5640 5639 5639 5638 5638 5638 5638 5639 5640 5640 5640 5640 5640 5640 5641 5641 5641 5640 5640 5640 5641 5641 5641 5641 5641 5641 5641 5640
5644 5643 5642 5641 5640 5639 5638 5638 5637 5636 5635 5635 5634 5634 5633 5633 5633 5632 5631 5631 5631 5631 5631 5632 5633 5633 5633 5633 5633 5634 5634 5634 5635 5634 5634 5635 5635 5635 5635 5635 5635 5635 5635 5635
5639 5638 5637 5635 5634 5633 5633 5632 5631 5630 5629 5628 5627 5627 5626 5626 5625 5625 5624 5623 5624 5624 5624 5625 5626 5626 5627 5627 5627 5627 5628 5628 5628 5628 5629 5629 5629 5629 5629 5629 5630 5630 5630 5630
5633 5632 5631 5629 5628 5627 5626 5625 5624 5623 5623 5622 5621 5620 5620 5619 5618 5618 5618 5618 5617 5618 5618 5619 5619 5620 5621 5621 5621 5621 5622 5622 5622 5622 5623 5623 5624 5623 5623 5624 5624 5624 5624 5624
5627 5626 5624 5623 5622 5620 5619 5618 5618 5617 5616 5615 5614 5613 5613 5612 5612 5612 5611 5611 5611 5612 5612 5613 5613 5614 5615 5615 5615 5616 5616 5616 5616 5617 5617 5617 5618 5618 5618 5618 5618 5619 5619 5619
5622 5620 5618 5617 5615 5614 5613 5612 5611 5610 5609 5609 5608 5607 5607 5607 5606 5606 5606 5606 5606 5606 5606 5607 5608 5608 5609 5610 5610 5610 5610 5611 5611 5611 5612 5612 5612 5612 5612 5613 5613 5613 5613 5614
5617 5615 5613 5611 5609 5608 5606 5606 5605 5604 5603 5603 5602 5601 5601 5601 5601 5600 5600 5600 5600 5600 5601 5601 5602 5603 5603 5604 5605 5605 5605 5605 5605 5606 5606 5606 5606 5606 5606 5607 5607 5608 5608 5609
5612 5610 5608 5606 5604 5602 5601 5600 5599 5598 5597 5597 5597 5596 5596 5596 5596 5595 5595 5595 5595 5595 5595 5595 5596 5596 5597 5598 5599 5599 5600 5600 5600 5600 5601 5601 5601 5601 5601 5601 5601 5602 5603 5603